If you wish to contribute or participate in the discussions about articles you are invited to join SKYbrary as a registered user

 Actions

Athens/Eleftherios Venizelos International Airport

From SKYbrary Wiki

LGAV
Airport
ICAO: LGAV – IATA: ATH
Summary
Name Athens/Eleftherios Venizelos International Airport
Region Europe
Territory Greece GR.gif
Location Spata
Serving Athens
Elevation 93.878 m
308 ft
308 ft93.878 m
Coordinates 37° 56' 13.43" N, 23° 56' 42.99" E
Runways
Designator Length Width Surface ROPS
03L/21R 3800 m12,467.192 ft
45 m147.638 ft
ASP yes/yes
03R/21L 4000 m13,123.36 ft
45 m147.638 ft
ASP yes/yes


METAR
Observation LGAV 260120Z VRB01KT 9999 FEW030 13/12 Q1020 NOSIG
Station Athens Eleftherios Venizelos International Airport
Date/Time 26 April 2019 01:20:00
Wind direction °
Wind speed 01 kts
Lowest cloud amount few clouds
Temperature 13°C
Dew point 12°C
Humidity 93%
QNH 1020 hPa
Weather condition n/a

International airport serving the Greek capital Athens. It is located 20 km10.799 nm
20,000 m
65,616.798 ft
east of Athens, in Spata.

Climatology

Mediterranean climate (Köppen climate classification Csa) - Hot, dry summer and a mild wet winter.

Maps

Terrain

Loading map...

Airport Layout

Loading map...



Accidents & Serious Incidents at or in vicinity of LGAV

None on SKYbrary